• In Germany
  • List of Countries
  • For 7 days
  • Water Temperature
  • Satellite Maps
  • Weather Map
  • Weather Widgets
  • user-avatar
    Login

    Hourly Weather Fier

    Today, 23 July, Sunday

    Time Temperature Precipitation Wind Pressure Humidity
    00:00 +28°C° 0 mm 2 mps 760 mmHg 48%
    01:00 +28°C° 0 mm 2 mps 760 mmHg 48%
    02:00 +28°C° 0 mm 3 mps 760 mmHg 47%
    03:00 +27°C° 0 mm 3 mps 760 mmHg 46%
    04:00 +27°C° 0 mm 3 mps 760 mmHg 45%
    05:00 +29°C° 0 mm 2 mps 760 mmHg 42%
    06:00 +31°C° 0 mm 2 mps 760 mmHg 39%
    07:00 +34°C° 0 mm 2 mps 760 mmHg 36%
    08:00 +36°C° 0 mm 2 mps 760 mmHg 32%
    09:00 +37°C° 0 mm 3 mps 760 mmHg 29%
    10:00 +38°C° 0 mm 3 mps 759 mmHg 25%
    11:00 +39°C° 0 mm 3 mps 759 mmHg 25%
    12:00 +40°C° 0 mm 4 mps 759 mmHg 26%
    13:00 +41°C° 0 mm 4 mps 759 mmHg 26%
    14:00 +40°C° 0 mm 4 mps 758 mmHg 28%
    15:00 +39°C° 0 mm 3 mps 758 mmHg 30%
    16:00 +38°C° 0 mm 3 mps 758 mmHg 32%
    17:00 +36°C° 0 mm 3 mps 758 mmHg 39%
    18:00 +34°C° 0 mm 2 mps 758 mmHg 45%
    19:00 +30°C° 0 mm 2 mps 758 mmHg 52%
    20:00 +29°C° 0 mm 2 mps 758 mmHg 55%
    21:00 +28°C° 0 mm 1 mps 759 mmHg 58%
    22:00 +27°C° 0 mm 1 mps 759 mmHg 61%
    23:00 +26°C° 0 mm 1 mps 759 mmHg 61%

    Tomorrow, 24 July, Monday

    Time Temperature Precipitation Wind Pressure Humidity
    00:00 +26°C° 0 mm 1 mps 758 mmHg 60%
    01:00 +26°C° 0 mm 1 mps 758 mmHg 60%
    02:00 +26°C° 0 mm 1 mps 758 mmHg 58%
    03:00 +25°C° 0 mm 1 mps 758 mmHg 57%
    04:00 +25°C° 0 mm 1 mps 757 mmHg 55%
    05:00 +27°C° 0 mm 1 mps 757 mmHg 50%
    06:00 +29°C° 0 mm 1 mps 757 mmHg 44%
    07:00 +31°C° 0 mm 1 mps 757 mmHg 38%
    08:00 +33°C° 0 mm 1 mps 757 mmHg 34%
    09:00 +36°C° 0 mm 2 mps 757 mmHg 30%
    10:00 +38°C° 0 mm 2 mps 756 mmHg 25%
    11:00 +38°C° 0 mm 2 mps 756 mmHg 24%
    12:00 +39°C° 0 mm 2 mps 755 mmHg 22%
    13:00 +40°C° 0 mm 3 mps 755 mmHg 21%
    14:00 +40°C° 0 mm 3 mps 754 mmHg 22%
    15:00 +40°C° 0 mm 3 mps 754 mmHg 23%
    16:00 +39°C° 0 mm 3 mps 753 mmHg 24%
    17:00 +37°C° 0 mm 3 mps 753 mmHg 30%
    18:00 +34°C° 0 mm 3 mps 753 mmHg 36%
    19:00 +31°C° 0 mm 3 mps 753 mmHg 43%
    20:00 +30°C° 0 mm 4 mps 753 mmHg 44%
    21:00 +29°C° 0 mm 4 mps 753 mmHg 45%
    22:00 +28°C° 0 mm 5 mps 753 mmHg 47%
    23:00 +28°C° 0 mm 6 mps 752 mmHg 48%

    Day after tomorrow, 25 July, Tuesday

    Time Temperature Precipitation Wind Pressure Humidity
    00:00 +27°C° 0 mm 6 mps 752 mmHg 50%
    01:00 +27°C° 0 mm 6 mps 752 mmHg 51%
    02:00 +26°C° 0 mm 6 mps 752 mmHg 54%
    03:00 +25°C° 0 mm 5 mps 752 mmHg 57%
    04:00 +25°C° 0 mm 5 mps 752 mmHg 60%
    05:00 +26°C° 0 mm 5 mps 752 mmHg 59%
    06:00 +28°C° 0 mm 4 mps 752 mmHg 59%
    07:00 +29°C° 0 mm 4 mps 752 mmHg 58%
    08:00 +30°C° 0 mm 4 mps 751 mmHg 52%
    09:00 +33°C° 0 mm 5 mps 751 mmHg 46%
    10:00 +34°C° 0 mm 5 mps 751 mmHg 41%
    11:00 +34°C° 0 mm 5 mps 751 mmHg 38%
    12:00 +34°C° 0 mm 6 mps 751 mmHg 36%
    13:00 +35°C° 0 mm 6 mps 751 mmHg 33%
    14:00 +34°C° 0 mm 6 mps 751 mmHg 34%
    15:00 +34°C° 0 mm 7 mps 751 mmHg 35%
    16:00 +34°C° 0 mm 7 mps 751 mmHg 36%
    17:00 +32°C° 0 mm 6 mps 751 mmHg 41%
    18:00 +29°C° 0 mm 6 mps 751 mmHg 47%
    19:00 +27°C° 0 mm 5 mps 751 mmHg 52%
    20:00 +27°C° 0 mm 5 mps 751 mmHg 55%
    21:00 +26°C° 0 mm 5 mps 752 mmHg 58%
    22:00 +25°C° 0 mm 5 mps 752 mmHg 61%
    23:00 +23°C° 0 mm 5 mps 752 mmHg 64%

    26 July, Wednesday

    Time Temperature Precipitation Wind Pressure Humidity
    00:00 +23°C° 0 mm 4 mps 752 mmHg 67%
    01:00 +22°C° 0 mm 4 mps 752 mmHg 70%
    02:00 +22°C° 0 mm 4 mps 752 mmHg 72%
    03:00 +21°C° 0 mm 3 mps 752 mmHg 74%
    04:00 +21°C° 0 mm 3 mps 752 mmHg 75%
    05:00 +24°C° 0 mm 3 mps 752 mmHg 71%
    06:00 +25°C° 0 mm 3 mps 752 mmHg 67%
    07:00 +27°C° 0 mm 3 mps 752 mmHg 63%
    08:00 +28°C° 0 mm 4 mps 752 mmHg 56%
    09:00 +30°C° 0 mm 4 mps 752 mmHg 49%
    10:00 +32°C° 0 mm 4 mps 752 mmHg 42%
    11:00 +33°C° 0 mm 5 mps 752 mmHg 41%
    12:00 +33°C° 0 mm 5 mps 752 mmHg 39%
    13:00 +33°C° 0 mm 6 mps 752 mmHg 38%
    14:00 +33°C° 0 mm 6 mps 752 mmHg 38%
    15:00 +33°C° 0 mm 6 mps 752 mmHg 39%
    16:00 +32°C° 0 mm 6 mps 752 mmHg 39%
    17:00 +29°C° 0 mm 5 mps 752 mmHg 46%
    18:00 +28°C° 0 mm 5 mps 752 mmHg 52%
    19:00 +26°C° 0 mm 4 mps 752 mmHg 58%
    20:00 +25°C° 0.1 mm 4 mps 753 mmHg 62%
    21:00 +23°C° 0.1 mm 4 mps 753 mmHg 66%
    22:00 +22°C° 0.1 mm 4 mps 753 mmHg 70%
    23:00 +22°C° 0.2 mm 4 mps 753 mmHg 73%

    27 July, Thursday

    Time Temperature Precipitation Wind Pressure Humidity
    00:00 +21°C° 0.2 mm 4 mps 753 mmHg 75%
    01:00 +21°C° 0.2 mm 4 mps 753 mmHg 78%
    02:00 +21°C° 0.4 mm 4 mps 753 mmHg 79%
    03:00 +21°C° 0.4 mm 4 mps 753 mmHg 81%
    04:00 +20°C° 0.4 mm 4 mps 753 mmHg 82%
    05:00 +22°C° 0.2 mm 4 mps 753 mmHg 76%
    06:00 +23°C° 0.2 mm 4 mps 753 mmHg 69%
    07:00 +26°C° 0.2 mm 4 mps 753 mmHg 63%
    08:00 +28°C° 0.1 mm 4 mps 753 mmHg 56%
    09:00 +29°C° 0.1 mm 4 mps 754 mmHg 49%
    10:00 +32°C° 0.1 mm 4 mps 754 mmHg 43%
    11:00 +32°C° 0.2 mm 4 mps 754 mmHg 43%
    12:00 +32°C° 0.2 mm 5 mps 754 mmHg 43%
    13:00 +32°C° 0.2 mm 5 mps 754 mmHg 42%
    14:00 +32°C° 0.4 mm 5 mps 754 mmHg 45%
    15:00 +30°C° 0.4 mm 4 mps 754 mmHg 48%
    16:00 +29°C° 0.4 mm 4 mps 754 mmHg 51%
    17:00 +28°C° 0.2 mm 3 mps 754 mmHg 57%
    18:00 +27°C° 0.2 mm 3 mps 754 mmHg 63%
    19:00 +25°C° 0.2 mm 2 mps 755 mmHg 69%
    20:00 +24°C° 0.2 mm 2 mps 755 mmHg 73%
    21:00 +24°C° 0.2 mm 1 mps 756 mmHg 78%
    22:00 +23°C° 0.2 mm 1 mps 756 mmHg 82%
    23:00 +23°C° 0.1 mm 1 mps 756 mmHg 83%

    28 July, Friday

    Time Temperature Precipitation Wind Pressure Humidity
    00:00 +22°C° 0.1 mm 1 mps 756 mmHg 83%
    01:00 +21°C° 0.1 mm 2 mps 756 mmHg 84%
    02:00 +21°C° 0 mm 2 mps 756 mmHg 83%
    03:00 +21°C° 0 mm 2 mps 756 mmHg 82%
    04:00 +20°C° 0 mm 2 mps 757 mmHg 80%
    05:00 +23°C° 0 mm 2 mps 757 mmHg 74%
    06:00 +24°C° 0 mm 2 mps 757 mmHg 67%
    07:00 +26°C° 0 mm 2 mps 757 mmHg 61%
    08:00 +28°C° 0 mm 2 mps 757 mmHg 54%
    09:00 +30°C° 0 mm 2 mps 757 mmHg 47%
    10:00 +33°C° 0 mm 3 mps 757 mmHg 40%
    11:00 +33°C° 0 mm 4 mps 757 mmHg 39%
    12:00 +34°C° 0 mm 5 mps 757 mmHg 37%
    13:00 +34°C° 0 mm 6 mps 757 mmHg 36%
    14:00 +34°C° 0.1 mm 6 mps 757 mmHg 38%
    15:00 +33°C° 0.1 mm 6 mps 757 mmHg 40%
    16:00 +33°C° 0.1 mm 6 mps 757 mmHg 42%
    17:00 +30°C° 0 mm 5 mps 757 mmHg 49%
    18:00 +28°C° 0 mm 5 mps 758 mmHg 55%
    19:00 +26°C° 0 mm 4 mps 758 mmHg 61%
    20:00 +26°C° 0 mm 3 mps 758 mmHg 65%
    21:00 +25°C° 0 mm 3 mps 759 mmHg 68%
    22:00 +24°C° 0 mm 2 mps 759 mmHg 72%
    23:00 +24°C° 0 mm 2 mps 759 mmHg 71%
    Show more